Atlanta, GA

3:03 PM EST on December 05, 2019 (GMT -0500)
The Hartsfield Atlanta International

Weather History for KATL - October, 2019

Change the Weather History Date:

Friday, October 4, 2019

  Actual Average Record
Temperature  
Mean Temperature 86 °F 67 °F  
Max Temperature 97 °F 76 °F 91 °F (1941)
Min Temperature 75 °F 58 °F 39 °F (1974)
Degree Days  
Heating Degree Days 0 2  
Month to date heating degree days 0 5  
Since 1 July heating degree days 0 16  
Cooling Degree Days 21 4  
Month to date cooling degree days 82 16  
Year to date cooling degree days 2559 1821  
Growing Degree Days 36 (Base 50)    
Moisture  
Dew Point 61 °F    
Average Humidity 45    
Maximum Humidity 69    
Minimum Humidity 26    
Precipitation  
Precipitation 0.00 in 0.14 in 6.68 in (1995)
Month to date precipitation 0.00 0.56  
Year to date precipitation 32.33 38.86  
Sea Level Pressure  
Sea Level Pressure 29.99 in    
Wind  
Wind Speed 6 mph ()    
Max Wind Speed 14 mph    
Max Gust Speed 20 mph    
Visibility 10.0 miles    
Events      
T = Trace of Precipitation, MM = Missing Value Source: Averaged Metar Reports

Daily Weather History Graph

Daily Weather History Graph

Search for Another Location

Airport or City:

Astronomy

Oct. 04, 2019 Rise Set
Actual Time 7:34 AM EDT 7:18 PM EDT
Civil Twilight 7:09 AM EDT 7:43 PM EDT
Nautical Twilight 6:40 AM EDT 8:11 PM EDT
Astronomical Twilight 6:11 AM EDT 8:40 PM EDT
Moon 1:49 PM EDT (10/4) No Moon Set
Length of Visible Light 12h 33m
Length of Day
11h 44m
Waxing Crescent, 39% of the Moon is Illuminated
Oct 4
Waxing Crescent
Oct 5
First Quarter
Oct 13
Full
Oct 21
Last Quarter
Oct 27
New

Hourly Weather History & Observations

Time (EDT) Temp. Heat Index Dew Point Humidity Pressure Visibility Wind Dir Wind Speed Gust Speed Precip Events Conditions
12:52 AM 82.9 °F 83.7 °F 62.1 °F 49% 30.00 in 10.0 mi ENE 3.5 mph - N/A   Partly Cloudy
1:52 AM 80.1 °F 81.5 °F 63.0 °F 56% 30.00 in 10.0 mi NNW 6.9 mph - N/A   Partly Cloudy
2:52 AM 79.0 °F - 64.0 °F 60% 29.99 in 10.0 mi NNW 4.6 mph - N/A   Partly Cloudy
3:52 AM 80.1 °F 81.2 °F 62.1 °F 54% 29.98 in 10.0 mi North 4.6 mph - N/A   Scattered Clouds
4:52 AM 75.2 °F - 62.6 °F 65% 29.99 in 10.0 mi SSE 3.5 mph - N/A   Scattered Clouds
5:52 AM 75.0 °F - 64.0 °F 69% 30.00 in 10.0 mi NW 5.8 mph - N/A   Partly Cloudy
6:52 AM 75.0 °F - 64.0 °F 69% 30.01 in 10.0 mi NW 5.8 mph - N/A   Partly Cloudy
7:52 AM 75.2 °F - 62.6 °F 65% 30.02 in 10.0 mi NNW 6.9 mph - N/A   Scattered Clouds
8:52 AM 77.0 °F - 62.6 °F 61% 30.03 in 10.0 mi NNW 9.2 mph - N/A   Scattered Clouds
9:52 AM 82.9 °F 84.0 °F 63.0 °F 51% 30.04 in 10.0 mi NNW 9.2 mph - N/A   Partly Cloudy
10:52 AM 87.1 °F 87.8 °F 63.0 °F 44% 30.04 in 10.0 mi NNW 9.2 mph - N/A   Partly Cloudy
11:52 AM 91.0 °F 91.5 °F 62.1 °F 38% 30.03 in 10.0 mi Variable 3.5 mph - N/A   Partly Cloudy
12:52 PM 93.9 °F 93.6 °F 60.1 °F 32% 30.02 in 10.0 mi North 8.1 mph - N/A   Partly Cloudy
1:52 PM 96.1 °F 96.0 °F 60.1 °F 30% 29.99 in 10.0 mi NNW 6.9 mph - N/A   Partly Cloudy
2:52 PM 96.1 °F 95.2 °F 57.9 °F 28% 29.97 in 10.0 mi NW 6.9 mph 19.6 mph N/A   Scattered Clouds
3:39 PM 96.1 °F 94.5 °F 55.9 °F 26% 29.99 in 10.0 mi NE 10.4 mph - N/A   Scattered Clouds
3:52 PM 97.0 °F 95.7 °F 57.0 °F 26% 29.95 in 10.0 mi North 9.2 mph - N/A   Scattered Clouds
4:52 PM 93.9 °F 92.2 °F 55.9 °F 28% 29.95 in 10.0 mi NE 6.9 mph - N/A   Scattered Clouds
5:52 PM 95.0 °F 94.4 °F 59.0 °F 30% 29.95 in 10.0 mi NNE 5.8 mph - N/A   Partly Cloudy
6:52 PM 93.0 °F 92.3 °F 59.0 °F 32% 29.95 in 10.0 mi NNW 6.9 mph - N/A   Scattered Clouds
7:52 PM 91.0 °F 90.5 °F 60.1 °F 35% 29.96 in 10.0 mi NW 6.9 mph - N/A   Scattered Clouds
8:52 PM 87.1 °F 87.0 °F 61.0 °F 41% 29.96 in 10.0 mi NNW 9.2 mph - N/A   Partly Cloudy
9:52 PM 84.9 °F 85.4 °F 62.1 °F 46% 29.98 in 10.0 mi NNW 8.1 mph - N/A   Partly Cloudy
10:52 PM 84.9 °F 85.4 °F 62.1 °F 46% 29.99 in 10.0 mi North 9.2 mph - N/A   Partly Cloudy
11:52 PM 82.0 °F 83.1 °F 63.0 °F 52% 29.99 in 10.0 mi North 4.6 mph - N/A   Scattered Clouds